This is the latest recevied weather packets stored in our database for station/object WA9NNN-10. If no packets are shown the sender has not sent any weather packets the latest 1 day(s).
| Time | Temp. | Humidity | Pressure | Rain* | Wind** | Luminosity | Snow |
|---|---|---|---|---|---|---|---|
| 1777967497 | 15.56° C | 43% | 1003.2 hPa | 0 mm | 1.79 m/s, 340° | - | - |
| 1777967196 | 15.56° C | 43% | 1003 hPa | 0 mm | 2.24 m/s, 337° | - | - |
| 1777966897 | 15.56° C | 43% | 1003 hPa | 0 mm | 0.89 m/s, 297° | - | - |
| 1777966596 | 15.56° C | 43% | 1002.8 hPa | 0 mm | 1.34 m/s, 323° | - | - |
| 1777966297 | 16.11° C | 42% | 1002.6 hPa | 0 mm | 0.89 m/s, 282° | - | - |
| 1777965996 | 16.11° C | 42% | 1002.6 hPa | 0 mm | 1.79 m/s, 303° | - | - |
| 1777965697 | 16.11° C | 42% | 1002.6 hPa | 0 mm | 1.34 m/s, 293° | - | - |
| 1777965396 | 16.11° C | 41% | 1002.5 hPa | 0 mm | 0.89 m/s, 285° | - | - |
| 1777965097 | 16.11° C | 41% | 1002.4 hPa | 0 mm | 1.79 m/s, 280° | - | - |
| 1777964797 | 16.11° C | 40% | 1002.2 hPa | 0 mm | 1.79 m/s, 328° | - | - |
| 1777964497 | 16.11° C | 40% | 1002.4 hPa | 0 mm | 0.45 m/s, 325° | - | - |
| 1777964197 | 16.11° C | 40% | 1002.3 hPa | 0 mm | 1.79 m/s, 255° | - | - |
| 1777963897 | 16.67° C | 40% | 1002.3 hPa | 0 mm | 4.02 m/s, 332° | - | - |
| 1777963596 | 16.67° C | 40% | 1002.3 hPa | 0 mm | 1.34 m/s, 356° | - | - |
| 1777963298 | 16.67° C | 40% | 1002.2 hPa | 0 mm | 2.24 m/s, 309° | - | - |
| 1777962997 | 16.67° C | 40% | 1002.2 hPa | 0 mm | 0.89 m/s, 324° | - | - |
| 1777962697 | 16.67° C | 39% | 1002.2 hPa | 0 mm | 1.79 m/s, 288° | - | - |
| 1777962397 | 16.67° C | 39% | 1002 hPa | 0 mm | 2.24 m/s, 308° | - | - |
| 1777962097 | 16.67° C | 40% | 1001.9 hPa | 0 mm | 0.45 m/s, 285° | - | - |
| 1777961797 | 16.67° C | 39% | 1001.8 hPa | 0 mm | 2.24 m/s, 316° | - | - |
| 1777961497 | 16.67° C | 40% | 1001.8 hPa | 0 mm | 0.89 m/s, 23° | - | - |
| 1777961196 | 16.67° C | 40% | 1001.9 hPa | 0 mm | 2.24 m/s, 321° | - | - |
| 1777960898 | 16.67° C | 40% | 1002 hPa | 0 mm | 1.34 m/s, 291° | - | - |
| 1777960597 | 16.67° C | 41% | 1002 hPa | 0 mm | 0.89 m/s, 252° | - | - |
| 1777960297 | 16.67° C | 42% | 1002 hPa | 0 mm | 1.79 m/s, 342° | - | - |
* Rain latest hour (hover to see other rain measurements)
** Current wind speed in m/s (hover to see current wind gust speed)